Tracking 28790 objects as of 19-Apr-2024
HD Live streaming from Space Station
objects crossing your sky now

ZHUHAI-1 03E

Track ZHUHAI-1 03E now!
10-day predictions


NORAD ID: 44539
Int'l Code: 2019-060F
Perigee: 461.1 km
Apogee: 495.0 km
Inclination: 97.5 °
Period: 94.0 minutes
Semi major axis: 6849 km
RCS: Unknown
Launch date: September 19, 2019
Source: People's Republic of China (PRC)
Launch site: Jiuquan Satellite Launch Center, China (JSC)
Your satellite tracking list
Your tracking list is empty




NASA's NSSDC Master Catalog

Two Line Element Set (TLE):
1 44539U 19060F   24109.86824885  .00037875  00000-0  12262-2 0  9991
2 44539  97.4879 237.8743 0024721 267.9026  91.9384 15.31636063254990
Source of the keplerian elements: AFSPC